Other Surface Observations
Issued by NWS Tucson, AZ

Home | Current Version | Previous Version | Text Only | Print | Product List | Glossary On
Versions: 1 2 3 4 5 6 7 8 9 10 11 12 13 14 15 16 17 18 19 20 21 22 23 24 25 26 27 28 29 30 31 32 33 34 35 36 37 38 39 40 41 42 43 44 45 46 47 48 49 50
000
SXUS55 KTWC 020016
OSOTWC

WEATHER ROUNDUP FOR SOUTHEAST ARIZONA
NATIONAL WEATHER SERVICE TUCSON AZ
515 PM MST FRI AUG 01 2014

AZZ504>506-514-020115-
LOCATION       SKY/WX    TMP DP  RH WIND       PRES   REMARKS
TUCSON         PTSUNNY   92  57  30 CALM      29.95F
DAVIS-MONTHAN  CLOUDY    90  58  33 SW1       29.94F
CHILDRENS PARK N/A      N/A N/A N/A N/A               PIMA CO DEQ
ALVERNON/22ND  N/A      N/A N/A N/A N/A               PIMA CO DEQ
CHERRY/GLENN   N/A      N/A N/A N/A N/A               PIMA CO DEQ
TANGERINE      N/A       95 N/A N/A W4                PIMA CO DEQ
CONTL RANCH    N/A       96  60  31 W7                PIMA CO DEQ
GRANT/1ST      N/A       92  57  31 W3                PIMA CO DEQ
CRAYCROFT/22ND N/A      N/A N/A N/A N/A               PIMA CO DEQ
GOLFLINKS/KOLB N/A      N/A N/A N/A N/A               PIMA CO DEQ
AJO/12TH       N/A       91  57  32 W2                PIMA CO DEQ
SAGUARO EAST   N/A      N/A N/A N/A N/A               PIMA CO DEQ
FAIRGROUNDS    N/A       89 N/A N/A SW8               PIMA CO DEQ
SAGUARO        N/A       95  58  29 SW5G10            *SABINO CYN
SAN CARLOS     N/A       96  60  30 SE5               *SAN CARLOS
GREEN VALLEY   N/A       90  63  41 E5                PIMA CO DEQ
HORSE CAMP CYN N/A       91  55  30 W14G23            *ARAVAIPA CYN
RINCON MTNS    N/A       68  53  58 SW3               *NR MANNING CAMP
$$

AZZ509>511-020115-
LOCATION       SKY/WX    TMP DP  RH WIND       PRES   REMARKS
SAFFORD        MOSUNNY   91  51  25 N18G26    29.95F
STRAY HORSE    N/A       58  54  86 N7G11             *
TRAIL CABIN    N/A       61  57  87 S5G15             *N OF GRANVILLE
BLACK HILLS    N/A       85  52  32 NE19G31           *N OF FT THOMAS
DRY LAKE       N/A       57  54  91 SE3               *NATANES MTNS
NOON CREEK     N/A       85  56  37 NE3               *PINALENO MTNS
COLUMBINE      N/A       59  48  68 S3                *PINALENO MTNS
GUTHRIE        N/A       79  53  40 SW16G25           *SW OF GUTHRIE
$$

AZZ502-503-513-020115-
LOCATION       SKY/WX    TMP DP  RH WIND       PRES   REMARKS
NOGALES        PTSUNNY   89  55  31 N5        30.03F
SELLS          N/A       86  60  42 W6G12             *
SASABE         N/A       86  59  40 S5                *ALTAR VLY
HOPKINS        N/A      127 127  82 W4G12             *SANTA RITA MTNS
CARR CYN       N/A       81  62  53 E4                *W OF HEREFORD
$$

AZZ507-508-512-020115-
LOCATION       SKY/WX    TMP DP  RH WIND       PRES   REMARKS
SIERRA VISTA   PTSUNNY   82  59  44 SW6       30.11F THUNDER
DOUGLAS        MOSUNNY   82  60  47 VRB5      30.07F
EMPIRE MTNS    N/A       87  57  36 W4G12             *LAS CIENEGAS NCA
MULESHOE RANCH N/A       74  61  64 S2G16             *PRESERVE
HEADQUARTERS   N/A       80  57  46 W4G14             *CHIRICAHUA MTNS
$$

.............................NOTES.............................
THIS IS AN AUTOMATED COLLECTIVE WITH MINIMAL QUALITY CONTROL.
PIMA CO DEQ SITES HAVE NONSTANDARD WIND SENSOR HEIGHTS.
PIMA CO DEQ SITES DO NOT REPORT WIND GUSTS.
* INDICATES WIND SENSORS LOCATED AT 20 FEET INSTEAD OF 33 FEET.
..............................KEY..............................
SKY/WX - SKY CONDITION/WEATHER
TMP    - TEMPERATURE IN FAHRENHEIT
DP     - DEWPOINT IN FAHRENHEIT
RH     - RELATIVE HUMIDITY IN PERCENT
WIND   - DIRECTION AND SPEED IN MILES PER HOUR (MPH)
VRB    - VARIABLE WIND DIRECTION
PRES   - MEAN SEA LEVEL PRESSURE IN INCHES OF MERCURY
         F - FALLING PRESSURE   R - RISING PRESSURE
         S - STEADY PRESSURE
VSB    - VISIBILITY IN MILES
HX     - HEAT INDEX IN FAHRENHEIT
WCI    - WIND CHILL INDEX IN FAHRENHEIT
N/A    - NOT AVAILABLE
AFB    - AIR FORCE BASE
         DAVIS-MONTHAN IS DAVIS-MONTHAN AIR FORCE BASE
CYN    - CANYON
MTNS   - MOUNTAINS
NCA    - NATIONAL CONSERVATION AREA
NR     - NEAR
VLY    - VALLEY
CONTL  - CONTINENTAL
PIMA CO DEQ - PIMA COUNTY DEPT OF ENVIRONMENTAL QUALITY



USA.gov is the U.S. government's official web portal to all federal, state and local government web resources and services.